FREGAT R/B, 44454

Orbit data source: Space-Track

FREGAT R/B, 44454 is space debris originally from a launch on Tue, 30 Jul 2019 UTC launched from the Plesetsk Missile And Space Complex (PKMTR). Debris objects in space refer to the collection of defunct objects orbiting the Earth. Examples of debris include non-operational satellites, rocket bodies, and fragments generated from explosions, collisions, or faulty payload assembly.

Loading next visibility...
FREGAT R/B details
Identifier
44454, 2019-046B
Orbit
Molniya
Last TLE update1 day ago
Origin
Flag of CISLavochkin (CIS)
ManufacturerLavochkin
MissionSpacecraft
Bus & MotorFREGAT, Unknown motor
Mass1,000 kg wet, 1,000 kg dry
Launch date (UTC)
2019-07-30 (5 years ago)
Launch vehicleUnknown
Launch site
Plesetsk Missile And Space Complex (PKMTR)
Object type
Payload
Rocket body
Debris
Shape & HBRIrr, 3.48 m
Radar Cross Section12.110 m², Large (>1 m²)

Expand to show TLE details & history

TLE from 1 day ago
0 FREGAT R/B
1 44454U 19046B   24337.94176641  .00000744  00000-0  00000-0 0  9993
2 44454  62.7528 107.9732 6967673 275.4562  15.3611  2.00216144 39185
Epoch: 2024-12-02T22:36Z
Definitive object data (Epoch: 2024-12-02T22:36:08.617Z)
Latitude0.00007°
Longitude56.63706°
Altitude6,481.273 km
Speed6.856 km/s
True Right ascension07h 11m 43s
True Declination0° 00' 00"
Sunlit
Object was in daylight at TLE epoch
Visualization TLE readout
Latitude-56.16148°
Longitude6.64612°
Altitude1,847.532 km
Speed9.061 km/s
Apparent Right ascension23h 44m 18s
Apparent Declination-65° 38' 44"
Sunlit
Object is in daylight
Visualization observer readout
Local Sidereal Time08:01:32
Azimuth211.791° SW
Elevation-49.715°
Doppler factor1
Orbital elements
Apogee altitude38,739.332 km
Perigee altitude1,684.897 km
Semi-major axis26,590.251 km
Eccentricity0.6967673
Inclination62.7528°
RAAN107.9732°
Arg. of periapsis275.4562°
True anomaly84.70857°
Mean anomaly15.3611°
Eccentric anomaly42.1533°
Mean motion0.50056 °/min
BSTARUnknown
Orbital period719.19 mins
Loading maneuver chart data...
Loading historical data...
Loading historical data...
Loading historical data...
Loading historical data...
Loading historical data...
Loading historical data...
Loading historical data...
Other satellites on launch #46 in the year 2019 (2019-07-30 UTC)

FREGAT R/B Visibility forecast

Observer location: undefined°, undefined

Span
Click to sort rows by Start time (UTC) header in descending order
Start Az.
Max El. time (UTC)
Max El. Az.
Max El.
End time (UTC)
End Az.
660 mins2024-12-04 10:31:08.282Z208.392° SW2024-12-04 19:54:08.282Z282.517° WNW44.841°2024-12-04 21:31:08.282Z179.204° S
|